User: anonymous   Login
Location: Unspecified
(0.0000°N, 0.0000°E)
Time: 21:50:41
(UTC+00:00)
Language:

UNAMSat - Orbit

View from above orbital plane
View from above orbital plane
View from above satellite
View from above satellite

Ground track
Ground track

The orbit data is extracted from the following two-line orbital elements,

1 24305U 96052B   18145.91694021 +.00000022 +00000-0 +76593-5 0  9996
2 24305 082.9362 098.9872 0030358 166.1179 194.0818 13.73797773088572
Epoch (UTC): 25 May 2018 22:00:23
Eccentricity: 0.0030358
inclination: 82.9362°
perigee height: 963 km
apogee height: 1008 km
right ascension of ascending node: 98.9872°
argument of perigee: 166.1179°
revolutions per day: 13.73797773
mean anomaly at epoch: 194.0818°
orbit number at epoch: 8857

The dashed part of the orbit path shows where the satellite is in the earth's shadow,  

DLR